User: anonymous   Login
Location: ???????
(55.4362°N, 38.1183°E)
Time: 22:04:01
(UTC+00:00)
Language:

Cosmos 921 Rocket - Orbit

View from above orbital plane
View from above orbital plane
View from above satellite
View from above satellite

Ground track
Ground track

The orbit data is extracted from the following two-line orbital elements,

1 10096U 77055B   21267.02028638  .00000090  00000-0  11647-4 0  9999
2 10096  75.8324 108.6058 0042801 193.4004 166.6054 14.88778368394342
Epoch (UTC): 24 September 2021 00:29:12
Eccentricity: 0.0042801
inclination: 75.8324°
perigee height: 572 km
apogee height: 631 km
right ascension of ascending node: 108.6058°
argument of perigee: 193.4004°
revolutions per day: 14.88778368
mean anomaly at epoch: 166.6054°
orbit number at epoch: 39434

The dashed part of the orbit path shows where the satellite is in the earth's shadow,  

DLR